contact:dominique.lefevre@mio.osupytheas.fr, maurice.libes@osupytheas.fr, didier.mallarino@osupytheas.fr
Project:EMSO http://www.emso-fr.org/EMSO-France
Depth: 2436.0 m
Title:EMSO Ligure Ouest : Data MII capteur MICROCAT
DateTime_Computer,Latitude,Longitude,Temperature,Conductivity,Pressure,DateTime_Instrument
DateTime_Computer,Latitude,Longitude,degC,S m-1,dbar,DateTime_Instrument
2020-03-22T00:02:11Z,42.805,6.029,13.2993,4.60046,2469.876,2020-3-22T02:02:48Z
2020-03-22T00:05:14Z,42.805,6.029,13.3027,4.60062,2469.867,2020-3-22T02:05:52Z
2020-03-22T00:08:17Z,42.805,6.029,13.3033,4.60029,2469.89,2020-3-22T02:08:55Z
2020-03-22T00:11:20Z,42.805,6.029,13.3042,4.60014,2469.867,2020-3-22T02:11:58Z
2020-03-22T00:14:24Z,42.805,6.029,13.3025,4.60014,2469.853,2020-3-22T02:15:01Z
2020-03-22T00:17:27Z,42.805,6.029,13.3005,4.59997,2469.876,2020-3-22T02:18:04Z
2020-03-22T00:20:30Z,42.805,6.029,13.2999,4.60052,2469.876,2020-3-22T02:21:08Z
2020-03-22T00:23:33Z,42.805,6.029,13.3000,4.59995,2469.867,2020-3-22T02:24:11Z
2020-03-22T00:26:36Z,42.805,6.029,13.2998,4.60033,2469.853,2020-3-22T02:27:14Z
2020-03-22T00:29:40Z,42.805,6.029,13.3013,4.60033,2469.867,2020-3-22T02:30:17Z
2020-03-22T00:32:43Z,42.805,6.029,13.3010,4.59986,2469.853,2020-3-22T02:33:21Z
2020-03-22T00:35:46Z,42.805,6.029,13.2988,4.60010,2469.867,2020-3-22T02:36:24Z
2020-03-22T00:38:49Z,42.805,6.029,13.3011,4.60007,2469.876,2020-3-22T02:39:27Z
2020-03-22T00:41:53Z,42.805,6.029,13.3014,4.59991,2469.876,2020-3-22T02:42:30Z
2020-03-22T00:44:56Z,42.805,6.029,13.2996,4.60000,2469.863,2020-3-22T02:45:34Z
2020-03-22T00:47:59Z,42.805,6.029,13.3007,4.59986,2469.89,2020-3-22T02:48:37Z
2020-03-22T00:51:02Z,42.805,6.029,13.2991,4.60001,2469.914,2020-3-22T02:51:40Z
2020-03-22T00:54:06Z,42.805,6.029,13.2996,4.59989,2469.876,2020-3-22T02:54:43Z
2020-03-22T00:57:09Z,42.805,6.029,13.2988,4.60019,2469.853,2020-3-22T02:57:46Z
2020-03-22T01:00:12Z,42.805,6.029,13.2997,4.60002,2469.89,2020-3-22T03:00:50Z
2020-03-22T01:03:15Z,42.805,6.029,13.3002,4.60007,2469.876,2020-3-22T03:03:53Z
2020-03-22T01:06:18Z,42.805,6.029,13.3023,4.59986,2469.876,2020-3-22T03:06:56Z
2020-03-22T01:09:22Z,42.805,6.029,13.2996,4.60022,2469.876,2020-3-22T03:09:59Z
2020-03-22T01:12:25Z,42.805,6.029,13.2988,4.60009,2469.876,2020-3-22T03:13:03Z
2020-03-22T01:15:28Z,42.805,6.029,13.3024,4.60020,2469.867,2020-3-22T03:16:06Z
2020-03-22T01:18:31Z,42.805,6.029,13.2990,4.60033,2469.867,2020-3-22T03:19:09Z
2020-03-22T01:21:35Z,42.805,6.029,13.3003,4.60010,2469.876,2020-3-22T03:22:12Z
2020-03-22T01:24:38Z,42.805,6.029,13.2985,4.60003,2469.89,2020-3-22T03:25:16Z
2020-03-22T01:27:41Z,42.805,6.029,13.2991,4.60003,2469.89,2020-3-22T03:28:19Z
2020-03-22T01:30:44Z,42.805,6.029,13.2998,4.60020,2469.89,2020-3-22T03:31:22Z
2020-03-22T01:33:48Z,42.805,6.029,13.2979,4.60010,2469.89,2020-3-22T03:34:25Z
2020-03-22T01:36:51Z,42.805,6.029,13.3056,4.59989,2469.876,2020-3-22T03:37:29Z
2020-03-22T01:39:54Z,42.805,6.029,13.2984,4.59988,2469.89,2020-3-22T03:40:32Z
2020-03-22T01:42:57Z,42.805,6.029,13.2973,4.59995,2469.89,2020-3-22T03:43:35Z
2020-03-22T01:46:01Z,42.805,6.029,13.2991,4.59988,2469.876,2020-3-22T03:46:38Z
2020-03-22T01:49:04Z,42.805,6.029,13.2992,4.59996,2469.876,2020-3-22T03:49:42Z
2020-03-22T01:52:07Z,42.805,6.029,13.2993,4.59996,2469.89,2020-3-22T03:52:45Z
2020-03-22T01:55:10Z,42.805,6.029,13.2991,4.59989,2469.876,2020-3-22T03:55:48Z
2020-03-22T01:58:14Z,42.805,6.029,13.2985,4.60006,2469.876,2020-3-22T03:58:51Z
2020-03-22T02:01:17Z,42.805,6.029,13.3017,4.59996,2469.89,2020-3-22T04:01:55Z
2020-03-22T02:04:20Z,42.805,6.029,13.3001,4.60002,2469.914,2020-3-22T04:04:58Z
2020-03-22T02:07:23Z,42.805,6.029,13.2997,4.60006,2469.876,2020-3-22T04:08:01Z
2020-03-22T02:10:27Z,42.805,6.029,13.3011,4.59990,2469.89,2020-3-22T04:11:04Z
2020-03-22T02:13:30Z,42.805,6.029,13.3008,4.59990,2469.89,2020-3-22T04:14:08Z
2020-03-22T02:16:33Z,42.805,6.029,13.3015,4.59998,2469.89,2020-3-22T04:17:11Z
2020-03-22T02:19:36Z,42.805,6.029,13.3021,4.60026,2469.876,2020-3-22T04:20:14Z
2020-03-22T02:22:40Z,42.805,6.029,13.2996,4.59999,2469.9,2020-3-22T04:23:17Z
2020-03-22T02:25:43Z,42.805,6.029,13.3034,4.59991,2469.863,2020-3-22T04:26:21Z
2020-03-22T02:28:46Z,42.805,6.029,13.3017,4.60015,2469.914,2020-3-22T04:29:24Z
2020-03-22T02:31:50Z,42.805,6.029,13.3006,4.60007,2469.923,2020-3-22T04:32:27Z
2020-03-22T02:34:53Z,42.805,6.029,13.3019,4.60003,2469.914,2020-3-22T04:35:30Z
2020-03-22T02:37:56Z,42.805,6.029,13.2998,4.60021,2469.914,2020-3-22T04:38:34Z
2020-03-22T02:40:59Z,42.805,6.029,13.3004,4.60004,2469.9,2020-3-22T04:41:37Z
2020-03-22T02:44:03Z,42.805,6.029,13.3021,4.60012,2469.914,2020-3-22T04:44:40Z
2020-03-22T02:47:06Z,42.805,6.029,13.3027,4.60002,2469.923,2020-3-22T04:47:44Z
2020-03-22T02:50:09Z,42.805,6.029,13.3012,4.60016,2469.937,2020-3-22T04:50:47Z
2020-03-22T02:53:12Z,42.805,6.029,13.3000,4.60010,2469.923,2020-3-22T04:53:50Z
2020-03-22T02:56:16Z,42.805,6.029,13.3014,4.60001,2469.923,2020-3-22T04:56:53Z
2020-03-22T02:59:19Z,42.805,6.029,13.3000,4.60002,2469.923,2020-3-22T04:59:56Z
2020-03-22T03:02:22Z,42.805,6.029,13.2997,4.59999,2469.923,2020-3-22T05:03:00Z
2020-03-22T03:05:25Z,42.805,6.029,13.3004,4.60002,2469.947,2020-3-22T05:06:03Z
2020-03-22T03:08:29Z,42.805,6.029,13.3019,4.59999,2469.923,2020-3-22T05:09:06Z
2020-03-22T03:11:32Z,42.805,6.029,13.3026,4.59993,2469.937,2020-3-22T05:12:10Z
2020-03-22T03:14:35Z,42.805,6.029,13.3009,4.59998,2469.937,2020-3-22T05:15:13Z
2020-03-22T03:17:38Z,42.805,6.029,13.3003,4.59988,2469.937,2020-3-22T05:18:16Z
2020-03-22T03:20:42Z,42.805,6.029,13.3000,4.59999,2469.923,2020-3-22T05:21:19Z
2020-03-22T03:23:45Z,42.805,6.029,13.2998,4.59999,2469.96,2020-3-22T05:24:22Z
2020-03-22T03:26:48Z,42.805,6.029,13.3003,4.60001,2469.947,2020-3-22T05:27:26Z
2020-03-22T03:29:51Z,42.805,6.029,13.3008,4.59996,2469.947,2020-3-22T05:30:29Z
2020-03-22T03:32:55Z,42.805,6.029,13.3000,4.59993,2469.947,2020-3-22T05:33:32Z
2020-03-22T03:35:58Z,42.805,6.029,13.3001,4.59996,2469.993,2020-3-22T05:36:35Z
2020-03-22T03:39:01Z,42.805,6.029,13.2998,4.59995,2469.984,2020-3-22T05:39:39Z
2020-03-22T03:42:04Z,42.805,6.029,13.2999,4.60000,2469.96,2020-3-22T05:42:42Z
2020-03-22T03:45:08Z,42.805,6.029,13.3000,4.60003,2469.97,2020-3-22T05:45:45Z
2020-03-22T03:48:11Z,42.805,6.029,13.3009,4.59996,2469.984,2020-3-22T05:48:48Z
2020-03-22T03:51:14Z,42.805,6.029,13.3002,4.59999,2469.984,2020-3-22T05:51:52Z
2020-03-22T03:54:17Z,42.805,6.029,13.3003,4.59994,2470.007,2020-3-22T05:54:55Z
2020-03-22T03:57:20Z,42.805,6.029,13.3001,4.60003,2469.993,2020-3-22T05:57:58Z
2020-03-22T04:00:24Z,42.805,6.029,13.3001,4.60009,2469.97,2020-3-22T06:01:01Z
2020-03-22T04:03:27Z,42.805,6.029,13.3007,4.60019,2470.007,2020-3-22T06:04:05Z
2020-03-22T04:06:30Z,42.805,6.029,13.3000,4.60006,2469.96,2020-3-22T06:07:08Z
2020-03-22T04:09:34Z,42.805,6.029,13.3000,4.60002,2469.984,2020-3-22T06:10:11Z
2020-03-22T04:12:37Z,42.805,6.029,13.2994,4.60000,2470.03,2020-3-22T06:13:14Z
2020-03-22T04:15:40Z,42.805,6.029,13.2995,4.59993,2469.97,2020-3-22T06:16:18Z
2020-03-22T04:18:43Z,42.805,6.029,13.2997,4.60011,2470.007,2020-3-22T06:19:21Z
2020-03-22T04:21:46Z,42.805,6.029,13.2996,4.59996,2469.993,2020-3-22T06:22:24Z
2020-03-22T04:24:50Z,42.805,6.029,13.2998,4.60003,2470.007,2020-3-22T06:25:27Z
2020-03-22T04:27:53Z,42.805,6.029,13.2998,4.60003,2469.984,2020-3-22T06:28:31Z
2020-03-22T04:30:56Z,42.805,6.029,13.3004,4.59996,2470.03,2020-3-22T06:31:34Z
2020-03-22T04:33:59Z,42.805,6.029,13.2993,4.59996,2469.97,2020-3-22T06:34:37Z
2020-03-22T04:37:03Z,42.805,6.029,13.3004,4.59987,2469.993,2020-3-22T06:37:40Z
2020-03-22T04:40:06Z,42.805,6.029,13.3004,4.59997,2469.993,2020-3-22T06:40:44Z
2020-03-22T04:43:09Z,42.805,6.029,13.3003,4.59996,2470.007,2020-3-22T06:43:47Z
2020-03-22T04:46:12Z,42.805,6.029,13.3010,4.59993,2469.993,2020-3-22T06:46:50Z
2020-03-22T04:49:16Z,42.805,6.029,13.2994,4.60001,2470.03,2020-3-22T06:49:53Z
2020-03-22T04:52:19Z,42.805,6.029,13.3021,4.59997,2470.017,2020-3-22T06:52:57Z
2020-03-22T04:55:22Z,42.805,6.029,13.3045,4.60003,2469.993,2020-3-22T06:56:00Z
2020-03-22T04:58:25Z,42.805,6.029,13.2999,4.59998,2470.03,2020-3-22T06:59:03Z
2020-03-22T05:01:29Z,42.805,6.029,13.3021,4.60004,2470.017,2020-3-22T07:02:06Z
2020-03-22T05:04:32Z,42.805,6.029,13.3003,4.59989,2470.053,2020-3-22T07:05:09Z
2020-03-22T05:07:35Z,42.805,6.029,13.3004,4.60008,2470.017,2020-3-22T07:08:13Z
2020-03-22T05:10:38Z,42.805,6.029,13.3021,4.60005,2470.063,2020-3-22T07:11:16Z
2020-03-22T05:13:42Z,42.805,6.029,13.2993,4.60000,2470.03,2020-3-22T07:14:19Z
2020-03-22T05:16:45Z,42.805,6.029,13.2998,4.60003,2470.053,2020-3-22T07:17:23Z
2020-03-22T05:19:48Z,42.805,6.029,13.2996,4.60001,2470.053,2020-3-22T07:20:26Z
2020-03-22T05:22:51Z,42.805,6.029,13.3000,4.59992,2470.03,2020-3-22T07:23:29Z
2020-03-22T05:25:55Z,42.805,6.029,13.2996,4.60002,2470.017,2020-3-22T07:26:32Z
2020-03-22T05:28:58Z,42.805,6.029,13.2991,4.59996,2470.03,2020-3-22T07:29:36Z
2020-03-22T05:32:01Z,42.805,6.029,13.3005,4.60004,2470.077,2020-3-22T07:32:39Z
2020-03-22T05:35:05Z,42.805,6.029,13.3001,4.60002,2470.077,2020-3-22T07:35:42Z
2020-03-22T05:38:08Z,42.805,6.029,13.3019,4.59999,2470.04,2020-3-22T07:38:46Z
2020-03-22T05:41:11Z,42.805,6.029,13.2997,4.60003,2469.984,2020-3-22T07:41:49Z
2020-03-22T05:44:15Z,42.805,6.029,13.2999,4.60001,2470.04,2020-3-22T07:44:52Z
2020-03-22T05:47:18Z,42.805,6.029,13.3006,4.60000,2470.04,2020-3-22T07:47:55Z
2020-03-22T05:50:21Z,42.805,6.029,13.3010,4.59993,2470.017,2020-3-22T07:50:59Z
2020-03-22T05:53:24Z,42.805,6.029,13.2998,4.59988,2470.04,2020-3-22T07:54:02Z
2020-03-22T05:56:27Z,42.805,6.029,13.3004,4.59989,2470.077,2020-3-22T07:57:05Z
2020-03-22T05:59:31Z,42.805,6.029,13.3009,4.59991,2470.053,2020-3-22T08:00:08Z
2020-03-22T06:02:34Z,42.805,6.029,13.3001,4.59994,2470.053,2020-3-22T08:03:12Z
2020-03-22T06:05:37Z,42.805,6.029,13.2994,4.60011,2470.04,2020-3-22T08:06:15Z
2020-03-22T06:08:40Z,42.805,6.029,13.3030,4.60013,2470.053,2020-3-22T08:09:18Z
2020-03-22T06:11:44Z,42.805,6.029,13.2999,4.60006,2470.063,2020-3-22T08:12:21Z
2020-03-22T06:14:47Z,42.805,6.029,13.3025,4.59993,2470.053,2020-3-22T08:15:25Z
2020-03-22T06:17:50Z,42.805,6.029,13.3009,4.60000,2470.1,2020-3-22T08:18:28Z
2020-03-22T06:20:53Z,42.805,6.029,13.3009,4.60008,2470.077,2020-3-22T08:21:31Z
2020-03-22T06:23:57Z,42.805,6.029,13.2998,4.59996,2470.063,2020-3-22T08:24:34Z
2020-03-22T06:27:00Z,42.805,6.029,13.3010,4.60001,2470.04,2020-3-22T08:27:38Z
2020-03-22T06:30:03Z,42.805,6.029,13.3004,4.60002,2470.063,2020-3-22T08:30:41Z
2020-03-22T06:33:07Z,42.805,6.029,13.3006,4.60003,2470.04,2020-3-22T08:33:44Z
2020-03-22T06:36:10Z,42.805,6.029,13.2998,4.60011,2470.053,2020-3-22T08:36:48Z
2020-03-22T06:39:13Z,42.805,6.029,13.3024,4.60011,2470.053,2020-3-22T08:39:51Z
2020-03-22T06:42:16Z,42.805,6.029,13.2990,4.60036,2470.063,2020-3-22T08:42:54Z
2020-03-22T06:45:20Z,42.805,6.029,13.3032,4.60001,2470.063,2020-3-22T08:45:57Z
2020-03-22T06:48:23Z,42.805,6.029,13.3014,4.59992,2470.063,2020-3-22T08:49:01Z
2020-03-22T06:51:26Z,42.805,6.029,13.3009,4.59992,2470.03,2020-3-22T08:52:04Z
2020-03-22T06:54:29Z,42.805,6.029,13.3015,4.59989,2470.063,2020-3-22T08:55:07Z
2020-03-22T06:57:33Z,42.805,6.029,13.3002,4.60035,2470.077,2020-3-22T08:58:10Z
2020-03-22T07:00:36Z,42.805,6.029,13.2998,4.60013,2470.063,2020-3-22T09:01:14Z
2020-03-22T07:03:39Z,42.805,6.029,13.2999,4.60021,2470.063,2020-3-22T09:04:17Z
2020-03-22T07:06:42Z,42.805,6.029,13.3020,4.60011,2470.1,2020-3-22T09:07:20Z
2020-03-22T07:09:45Z,42.805,6.029,13.3039,4.60001,2470.087,2020-3-22T09:10:23Z
2020-03-22T07:12:49Z,42.805,6.029,13.2997,4.60001,2470.04,2020-3-22T09:13:26Z
2020-03-22T07:15:52Z,42.805,6.029,13.3019,4.60019,2470.053,2020-3-22T09:16:30Z
2020-03-22T07:18:55Z,42.805,6.029,13.3000,4.60002,2470.1,2020-3-22T09:19:33Z
2020-03-22T07:21:59Z,42.805,6.029,13.3000,4.59991,2470.04,2020-3-22T09:22:36Z
2020-03-22T07:25:02Z,42.805,6.029,13.3026,4.60003,2470.04,2020-3-22T09:25:40Z
2020-03-22T07:28:05Z,42.805,6.029,13.3009,4.60004,2470.017,2020-3-22T09:28:43Z
2020-03-22T07:31:08Z,42.805,6.029,13.3009,4.60009,2470.063,2020-3-22T09:31:46Z
2020-03-22T07:34:12Z,42.805,6.029,13.3006,4.60014,2470.03,2020-3-22T09:34:49Z
2020-03-22T07:37:15Z,42.805,6.029,13.3005,4.60006,2470.077,2020-3-22T09:37:52Z
2020-03-22T07:40:18Z,42.805,6.029,13.3002,4.60015,2470.017,2020-3-22T09:40:56Z
2020-03-22T07:43:21Z,42.805,6.029,13.2994,4.60013,2470.053,2020-3-22T09:43:59Z
2020-03-22T07:46:25Z,42.805,6.029,13.3004,4.60009,2470.017,2020-3-22T09:47:02Z
2020-03-22T07:49:28Z,42.805,6.029,13.3012,4.59996,2470.063,2020-3-22T09:50:05Z
2020-03-22T07:52:31Z,42.805,6.029,13.3008,4.60016,2470.053,2020-3-22T09:53:09Z
2020-03-22T07:55:34Z,42.805,6.029,13.2991,4.59996,2470.053,2020-3-22T09:56:12Z
2020-03-22T07:58:37Z,42.805,6.029,13.3015,4.60001,2470.04,2020-3-22T09:59:15Z
2020-03-22T08:01:41Z,42.805,6.029,13.2995,4.60000,2470.053,2020-3-22T10:02:18Z
2020-03-22T08:04:44Z,42.805,6.029,13.2990,4.60005,2470.063,2020-3-22T10:05:22Z
2020-03-22T08:07:47Z,42.805,6.029,13.2995,4.59990,2470.077,2020-3-22T10:08:25Z
2020-03-22T08:10:50Z,42.805,6.029,13.2997,4.59993,2470.053,2020-3-22T10:11:28Z
2020-03-22T08:13:54Z,42.805,6.029,13.2999,4.60001,2470.053,2020-3-22T10:14:31Z
2020-03-22T08:16:57Z,42.805,6.029,13.2990,4.60010,2470.03,2020-3-22T10:17:34Z
2020-03-22T08:20:00Z,42.805,6.029,13.2996,4.60016,2470.03,2020-3-22T10:20:38Z
2020-03-22T08:23:03Z,42.805,6.029,13.2994,4.60019,2470.1,2020-3-22T10:23:41Z
2020-03-22T08:26:07Z,42.805,6.029,13.2992,4.60032,2470.017,2020-3-22T10:26:44Z
2020-03-22T08:29:10Z,42.805,6.029,13.2987,4.60019,2470.03,2020-3-22T10:29:48Z
2020-03-22T08:32:13Z,42.805,6.029,13.3004,4.60007,2470.017,2020-3-22T10:32:51Z
2020-03-22T08:35:16Z,42.805,6.029,13.3000,4.59999,2470.044,2020-3-22T10:35:54Z
2020-03-22T08:38:20Z,42.805,6.029,13.3004,4.60014,2470.04,2020-3-22T10:38:57Z
2020-03-22T08:41:23Z,42.805,6.029,13.2993,4.60023,2470.007,2020-3-22T10:42:01Z
2020-03-22T08:44:26Z,42.805,6.029,13.3007,4.60040,2469.993,2020-3-22T10:45:04Z
2020-03-22T08:47:29Z,42.805,6.029,13.2990,4.60050,2470.017,2020-3-22T10:48:07Z
2020-03-22T08:50:33Z,42.805,6.029,13.3009,4.60028,2470.053,2020-3-22T10:51:10Z
2020-03-22T08:53:36Z,42.805,6.029,13.3024,4.60015,2469.993,2020-3-22T10:54:14Z
2020-03-22T08:56:39Z,42.805,6.029,13.3029,4.60019,2470.017,2020-3-22T10:57:17Z
2020-03-22T08:59:42Z,42.805,6.029,13.3008,4.60021,2470.007,2020-3-22T11:00:20Z
2020-03-22T09:02:46Z,42.805,6.029,13.2980,4.60011,2470.03,2020-3-22T11:03:23Z
2020-03-22T09:05:49Z,42.805,6.029,13.3001,4.60017,2470.03,2020-3-22T11:06:26Z
2020-03-22T09:08:52Z,42.805,6.029,13.3043,4.60011,2470.04,2020-3-22T11:09:30Z
2020-03-22T09:11:55Z,42.805,6.029,13.3024,4.60033,2469.993,2020-3-22T11:12:33Z
2020-03-22T09:14:58Z,42.805,6.029,13.3010,4.59990,2470.017,2020-3-22T11:15:36Z
2020-03-22T09:18:02Z,42.805,6.029,13.3010,4.60022,2469.993,2020-3-22T11:18:39Z
2020-03-22T09:21:05Z,42.805,6.029,13.3011,4.60009,2470.017,2020-3-22T11:21:43Z
2020-03-22T09:24:08Z,42.805,6.029,13.3012,4.60020,2470.017,2020-3-22T11:24:46Z
2020-03-22T09:27:11Z,42.805,6.029,13.2993,4.60017,2470.03,2020-3-22T11:27:49Z
2020-03-22T09:30:15Z,42.805,6.029,13.2991,4.59999,2470.007,2020-3-22T11:30:52Z
2020-03-22T09:33:18Z,42.805,6.029,13.3006,4.60031,2469.984,2020-3-22T11:33:56Z
2020-03-22T09:36:21Z,42.805,6.029,13.3002,4.59985,2469.97,2020-3-22T11:36:59Z
2020-03-22T09:39:24Z,42.805,6.029,13.2992,4.60037,2469.979,2020-3-22T11:40:02Z
2020-03-22T09:42:28Z,42.805,6.029,13.2990,4.60022,2470.017,2020-3-22T11:43:05Z
2020-03-22T09:45:31Z,42.805,6.029,13.3002,4.60026,2470.007,2020-3-22T11:46:09Z
2020-03-22T09:48:34Z,42.805,6.029,13.3024,4.60020,2469.984,2020-3-22T11:49:12Z
2020-03-22T09:51:37Z,42.805,6.029,13.2998,4.59997,2469.984,2020-3-22T11:52:15Z
2020-03-22T09:54:40Z,42.805,6.029,13.3015,4.60049,2469.97,2020-3-22T11:55:18Z
2020-03-22T09:57:44Z,42.805,6.029,13.2991,4.60035,2469.984,2020-3-22T11:58:21Z
2020-03-22T10:00:47Z,42.805,6.029,13.3004,4.60029,2470.007,2020-3-22T12:01:25Z
2020-03-22T10:03:50Z,42.805,6.029,13.3008,4.60012,2469.96,2020-3-22T12:04:28Z
2020-03-22T10:06:54Z,42.805,6.029,13.3007,4.60047,2469.96,2020-3-22T12:07:31Z
2020-03-22T10:09:57Z,42.805,6.029,13.2998,4.60024,2469.984,2020-3-22T12:10:35Z
2020-03-22T10:13:00Z,42.805,6.029,13.2982,4.60007,2469.984,2020-3-22T12:13:38Z
2020-03-22T10:16:03Z,42.805,6.029,13.2987,4.60016,2469.947,2020-3-22T12:16:41Z
2020-03-22T10:19:07Z,42.805,6.029,13.2990,4.60003,2469.96,2020-3-22T12:19:44Z
2020-03-22T10:22:10Z,42.805,6.029,13.2997,4.59999,2469.96,2020-3-22T12:22:48Z
2020-03-22T10:25:13Z,42.805,6.029,13.3008,4.60017,2469.97,2020-3-22T12:25:51Z
2020-03-22T10:28:16Z,42.805,6.029,13.3022,4.59986,2469.96,2020-3-22T12:28:54Z
2020-03-22T10:31:20Z,42.805,6.029,13.2982,4.60011,2469.947,2020-3-22T12:31:57Z
2020-03-22T10:34:23Z,42.805,6.029,13.3001,4.60044,2469.96,2020-3-22T12:35:01Z
2020-03-22T10:37:26Z,42.805,6.029,13.2996,4.60007,2469.97,2020-3-22T12:38:04Z
2020-03-22T10:40:29Z,42.805,6.029,13.2998,4.60011,2469.937,2020-3-22T12:41:07Z
2020-03-22T10:43:33Z,42.805,6.029,13.2996,4.60032,2469.923,2020-3-22T12:44:10Z
2020-03-22T10:46:36Z,42.805,6.029,13.3019,4.60035,2469.96,2020-3-22T12:47:14Z
2020-03-22T10:49:39Z,42.805,6.029,13.3004,4.60016,2469.984,2020-3-22T12:50:17Z
2020-03-22T10:52:42Z,42.805,6.029,13.3008,4.59991,2469.923,2020-3-22T12:53:20Z
2020-03-22T10:55:46Z,42.805,6.029,13.3003,4.60022,2469.923,2020-3-22T12:56:23Z
2020-03-22T10:58:49Z,42.805,6.029,13.3029,4.60044,2469.914,2020-3-22T12:59:27Z
2020-03-22T11:01:52Z,42.805,6.029,13.3017,4.60015,2469.947,2020-3-22T13:02:30Z
2020-03-22T11:04:55Z,42.805,6.029,13.3036,4.60016,2469.923,2020-3-22T13:05:33Z
2020-03-22T11:07:59Z,42.805,6.029,13.3002,4.59984,2469.923,2020-3-22T13:08:36Z
2020-03-22T11:11:02Z,42.805,6.029,13.2981,4.60002,2469.937,2020-3-22T13:11:40Z
2020-03-22T11:14:05Z,42.805,6.029,13.2996,4.60060,2469.923,2020-3-22T13:14:43Z
2020-03-22T11:17:08Z,42.805,6.029,13.3012,4.60007,2469.923,2020-3-22T13:17:46Z
2020-03-22T11:20:12Z,42.805,6.029,13.3025,4.60030,2469.937,2020-3-22T13:20:49Z
2020-03-22T11:23:15Z,42.805,6.029,13.3015,4.60049,2469.9,2020-3-22T13:23:53Z
2020-03-22T11:26:18Z,42.805,6.029,13.3024,4.60037,2469.937,2020-3-22T13:26:56Z
2020-03-22T11:29:21Z,42.805,6.029,13.3007,4.60081,2469.914,2020-3-22T13:29:59Z
2020-03-22T11:32:24Z,42.805,6.029,13.3021,4.60038,2469.914,2020-3-22T13:33:02Z
2020-03-22T11:35:28Z,42.805,6.029,13.2996,4.60025,2469.914,2020-3-22T13:36:05Z
2020-03-22T11:38:31Z,42.805,6.029,13.2993,4.60066,2469.89,2020-3-22T13:39:09Z
2020-03-22T11:41:34Z,42.805,6.029,13.3005,4.60056,2469.9,2020-3-22T13:42:12Z
2020-03-22T11:44:38Z,42.805,6.029,13.2991,4.60039,2469.9,2020-3-22T13:45:15Z
2020-03-22T11:47:41Z,42.805,6.029,13.2993,4.60011,2469.876,2020-3-22T13:48:19Z
2020-03-22T11:50:44Z,42.805,6.029,13.3011,4.60010,2469.914,2020-3-22T13:51:22Z
2020-03-22T11:53:47Z,42.805,6.029,13.3022,4.60024,2469.89,2020-3-22T13:54:25Z
2020-03-22T11:56:50Z,42.805,6.029,13.3017,4.60029,2469.9,2020-3-22T13:57:28Z
2020-03-22T11:59:54Z,42.805,6.029,13.3021,4.60032,2469.914,2020-3-22T14:00:31Z
2020-03-22T12:02:57Z,42.805,6.029,13.2986,4.60016,2469.9,2020-3-22T14:03:35Z
2020-03-22T12:06:00Z,42.805,6.029,13.3009,4.59988,2469.914,2020-3-22T14:06:38Z
2020-03-22T12:09:04Z,42.805,6.029,13.2999,4.60003,2469.9,2020-3-22T14:09:41Z
2020-03-22T12:12:07Z,42.805,6.029,13.2982,4.60022,2469.867,2020-3-22T14:12:45Z
2020-03-22T12:15:10Z,42.805,6.029,13.2994,4.60028,2469.89,2020-3-22T14:15:48Z
2020-03-22T12:18:14Z,42.805,6.029,13.3009,4.60054,2469.914,2020-3-22T14:18:51Z
2020-03-22T12:21:17Z,42.805,6.029,13.3024,4.60051,2469.853,2020-3-22T14:21:54Z
2020-03-22T12:24:20Z,42.805,6.029,13.3018,4.60011,2469.914,2020-3-22T14:24:58Z
2020-03-22T12:27:23Z,42.805,6.029,13.3005,4.60019,2469.853,2020-3-22T14:28:01Z
2020-03-22T12:30:27Z,42.805,6.029,13.3022,4.60037,2469.876,2020-3-22T14:31:04Z
2020-03-22T12:33:30Z,42.805,6.029,13.3015,4.60057,2469.867,2020-3-22T14:34:08Z
2020-03-22T12:36:33Z,42.805,6.029,13.3021,4.60055,2469.89,2020-3-22T14:37:11Z
2020-03-22T12:39:36Z,42.805,6.029,13.3034,4.60027,2469.853,2020-3-22T14:40:14Z
2020-03-22T12:42:39Z,42.805,6.029,13.3018,4.60046,2469.876,2020-3-22T14:43:17Z
2020-03-22T12:45:43Z,42.805,6.029,13.3012,4.60045,2469.89,2020-3-22T14:46:20Z
2020-03-22T12:48:46Z,42.805,6.029,13.3024,4.60049,2469.853,2020-3-22T14:49:24Z
2020-03-22T12:51:49Z,42.805,6.029,13.3029,4.60037,2469.867,2020-3-22T14:52:27Z
2020-03-22T12:54:53Z,42.805,6.029,13.3026,4.60039,2469.876,2020-3-22T14:55:31Z
2020-03-22T12:57:56Z,42.805,6.029,13.3020,4.60043,2469.876,2020-3-22T14:58:34Z
2020-03-22T13:00:59Z,42.805,6.029,13.3021,4.60059,2469.89,2020-3-22T15:01:37Z
2020-03-22T13:04:03Z,42.805,6.029,13.3014,4.60015,2469.876,2020-3-22T15:04:40Z
2020-03-22T13:07:06Z,42.805,6.029,13.3000,4.60021,2469.876,2020-3-22T15:07:43Z
2020-03-22T13:10:09Z,42.805,6.029,13.3005,4.60067,2469.853,2020-3-22T15:10:47Z
2020-03-22T13:13:12Z,42.805,6.029,13.3029,4.60020,2469.867,2020-3-22T15:13:50Z
2020-03-22T13:16:15Z,42.805,6.029,13.3017,4.60047,2469.853,2020-3-22T15:16:53Z
2020-03-22T13:19:19Z,42.805,6.029,13.3032,4.60021,2469.876,2020-3-22T15:19:56Z
2020-03-22T13:22:22Z,42.805,6.029,13.3018,4.60026,2469.853,2020-3-22T15:23:00Z
2020-03-22T13:25:25Z,42.805,6.029,13.3009,4.60046,2469.89,2020-3-22T15:26:03Z
2020-03-22T13:28:28Z,42.805,6.029,13.3009,4.60071,2469.876,2020-3-22T15:29:06Z
2020-03-22T13:31:32Z,42.805,6.029,13.3004,4.60067,2469.867,2020-3-22T15:32:09Z
2020-03-22T13:34:35Z,42.805,6.029,13.3026,4.60052,2469.9,2020-3-22T15:35:13Z
2020-03-22T13:37:38Z,42.805,6.029,13.2998,4.60031,2469.853,2020-3-22T15:38:16Z
2020-03-22T13:40:42Z,42.805,6.029,13.3019,4.60052,2469.9,2020-3-22T15:41:19Z
2020-03-22T13:43:45Z,42.805,6.029,13.2990,4.60027,2469.89,2020-3-22T15:44:23Z
2020-03-22T13:46:48Z,42.805,6.029,13.3021,4.60011,2469.867,2020-3-22T15:47:26Z
2020-03-22T13:49:51Z,42.805,6.029,13.3000,4.60027,2469.89,2020-3-22T15:50:29Z
2020-03-22T13:52:55Z,42.805,6.029,13.3026,4.60025,2469.83,2020-3-22T15:53:32Z
2020-03-22T13:55:58Z,42.805,6.029,13.3006,4.60034,2469.867,2020-3-22T15:56:36Z
2020-03-22T13:59:01Z,42.805,6.029,13.3024,4.60024,2469.914,2020-3-22T15:59:39Z
2020-03-22T14:02:04Z,42.805,6.029,13.3020,4.59997,2469.867,2020-3-22T16:02:42Z
2020-03-22T14:05:08Z,42.805,6.029,13.3021,4.60009,2469.89,2020-3-22T16:05:45Z
2020-03-22T14:08:11Z,42.805,6.029,13.3000,4.60011,2469.89,2020-3-22T16:08:49Z
2020-03-22T14:11:14Z,42.805,6.029,13.3019,4.60026,2469.89,2020-3-22T16:11:52Z
2020-03-22T14:14:18Z,42.805,6.029,13.2991,4.59982,2469.9,2020-3-22T16:14:55Z
2020-03-22T14:17:21Z,42.805,6.029,13.2995,4.60003,2469.89,2020-3-22T16:17:58Z
2020-03-22T14:20:24Z,42.805,6.029,13.2971,4.60009,2469.853,2020-3-22T16:21:02Z
2020-03-22T14:23:27Z,42.805,6.029,13.2982,4.60012,2469.853,2020-3-22T16:24:05Z
2020-03-22T14:26:31Z,42.805,6.029,13.2998,4.59988,2469.9,2020-3-22T16:27:08Z
2020-03-22T14:29:34Z,42.805,6.029,13.2986,4.59995,2469.876,2020-3-22T16:30:11Z
2020-03-22T14:32:37Z,42.805,6.029,13.2993,4.59992,2469.9,2020-3-22T16:33:15Z
2020-03-22T14:35:40Z,42.805,6.029,13.2995,4.60009,2469.89,2020-3-22T16:36:18Z
2020-03-22T14:38:44Z,42.805,6.029,13.3003,4.59996,2469.914,2020-3-22T16:39:21Z
2020-03-22T14:41:47Z,42.805,6.029,13.2992,4.59996,2469.876,2020-3-22T16:42:25Z
2020-03-22T14:44:50Z,42.805,6.029,13.2977,4.60002,2469.914,2020-3-22T16:45:28Z
2020-03-22T14:47:53Z,42.805,6.029,13.3004,4.59994,2469.89,2020-3-22T16:48:31Z
2020-03-22T14:50:57Z,42.805,6.029,13.2984,4.59992,2469.9,2020-3-22T16:51:34Z
2020-03-22T14:54:00Z,42.805,6.029,13.3002,4.59997,2469.937,2020-3-22T16:54:38Z
2020-03-22T14:57:03Z,42.805,6.029,13.2980,4.59986,2469.923,2020-3-22T16:57:41Z
2020-03-22T15:00:06Z,42.805,6.029,13.2985,4.59999,2469.89,2020-3-22T17:00:44Z
2020-03-22T15:03:10Z,42.805,6.029,13.2996,4.59986,2469.914,2020-3-22T17:03:47Z
2020-03-22T15:06:13Z,42.805,6.029,13.2983,4.59985,2469.914,2020-3-22T17:06:51Z
2020-03-22T15:09:16Z,42.805,6.029,13.2990,4.59993,2469.89,2020-3-22T17:09:54Z
2020-03-22T15:12:19Z,42.805,6.029,13.2993,4.59993,2469.923,2020-3-22T17:12:57Z
2020-03-22T15:15:22Z,42.805,6.029,13.2990,4.59990,2469.923,2020-3-22T17:16:00Z